Location: Tel Aviv
(32.0670°N, 34.7670°E)
Time: 20:37:38
(UTC+03:00)

Vanguard 2 Rocket - Pass Details

Date: 26 January 2022
Orbit: 553 x 3323 km, 32.9° (Epoch: 24 May)

Event Time Altitude Azimuth Distance (km) Brightness Sun altitude
Exits shadow 02:24:35 73° 84° (E) 3,237 9.4 -53.6°
Drops below altitude 10° 02:42:27 10° 82° (E) 6,229 11.6 -49.9°
Sets 02:47:05 0° 83° (E) 7,132 12.1 -48.9°
